DRAGON CRS-22 (48831 NORAD) Tracking and Keplerian Element Data

This shows tracking and keplerian element data for the satellite.

Feedback or suggestion? Click here.




ElementValue
Catalog48831
NameDRAGON CRS-22
Epoch Orbit28896
Epoch Day170.55100848
Epoch Year2021
RAAN331.0365
Inclination51.6443
Eccentricity0.000338
Argument of Perigee104.9286
Mean Anonmoly332.6235
Mean Motion15.48998238
Decay Rate-8.01E-06
L11 48831U 21048A 21170.55100848 -.00000801 00000-0 -63758-5 0 9996
L22 48831 51.6443 331.0365 0003380 104.9286 332.6235 15.48998238288968

Live tracking and technical data element details for DRAGON CRS-22 (NORAD 48831). DRAGON CRS-22 can be tracked NOW for your location showing map with azimuth and elevation plus other details from your city location.

Track the satellite on the map from your city or location and see movement details for azimuth, elevation, latitude, longitude, range, height, and movement on the map or in text.







IsCatalogInMostPopularTable: catalog: 48831, numindb: 4
Update: records affected: 1



GetName: 48831 DRAGON CRS-22

Hit Count: updated at: Mon, 21 Jun 2021 04:31:19 GMT